Wind_Speed
35 37 34 32 27 21 16 19 21 26 25 29 24 27 31 30 31 23 20 23 20 21 23 22 23 25 25 23 26 32 37 40 42 43 42 41 39 39 36 36 32 34 32 28 28 30 29 26 25
37 38 36 35 27 20 16 25 19 22 31 35 22 27 29 31 25 18 17 24 24 20 24 22 24 22 19 20 22 22 28 35 39 41 40 39 39 41 38 38 36 34 36 31 30 31 29 26 23
38 38 36 35 29 18 17 20 18 29 36 36 31 28 31 25 21 22 20 17 20 21 20 25 25 25 22 23 22 24 24 27 35 39 41 43 40 38 37 36 34 37 35 32 32 31 29 26 23
40 39 37 35 28 18 16 25 17 34 36 27 28 29 32 17 17 21 20 19 21 23 18 19 25 26 27 25 25 25 27 28 29 35 37 37 40 40 40 39 35 34 39 39 33 31 30 24 20
42 40 37 34 26 19 8 12 26 35 38 32 29 27 31 16 18 22 22 20 18 23 21 18 23 24 26 28 28 28 28 29 31 33 34 33 26 28 36 36 33 34 40 41 32 30 27 25 29
44 41 39 30 23 23 26 15 28 36 38 31 36 30 29 17 16 21 21 20 18 21 22 19 23 23 25 27 28 31 31 35 37 38 34 36 37 32 33 34 37 37 43 41 38 36 33 35 29
43 40 37 35 26 26 19 12 25 36 39 32 29 30 30 18 21 21 21 21 21 22 23 21 22 24 26 27 30 33 33 35 31 43 31 30 39 23 36 36 40 42 48 45 44 41 40 33 23
42 41 40 34 25 20 16 18 25 36 28 30 25 29 27 23 26 24 23 22 25 24 23 22 22 22 24 26 31 30 33 37 27 28 36 28 27 36 31 34 41 49 45 41 40 38 34 23 25
44 45 43 31 25 20 10 20 30 36 34 28 26 27 25 25 30 27 26 24 26 25 22 21 21 19 19 24 27 32 32 37 36 39 31 34 34 29 30 25 38 36 38 40 38 34 28 27 25
49 48 38 28 21 27 14 16 27 36 28 25 27 27 16 18 28 28 27 24 21 20 21 22 21 18 20 23 31 27 31 30 33 29 42 34 37 29 17 25 23 35 37 39 40 35 27 24 24
47 46 36 30 28 35 26 19 27 38 23 25 26 25 22 18 25 25 24 20 17 17 18 21 20 19 19 22 21 17 21 24 23 26 43 23 18 26 23 25 25 33 41 40 40 34 28 26 25
45 42 39 31 34 36 35 34 34 37 22 23 24 24 24 22 23 21 21 15 15 17 17 19 18 19 17 15 17 16 16 21 19 38 36 25 21 22 23 20 21 34 43 40 34 28 27 28 23
42 40 41 34 37 37 37 32 38 31 22 25 24 21 26 25 24 19 20 15 13 16 18 18 20 19 18 15 15 15 13 16 8 31 29 23 19 19 23 19 20 26 37 35 32 31 29 27 27
38 41 41 38 38 34 35 29 31 23 22 22 24 18 24 24 24 20 16 14 13 14 18 18 22 23 16 13 14 9 11 8 16 29 27 23 25 26 24 23 21 27 30 35 35 37 32 29 30
41 45 43 43 38 35 34 31 28 20 22 21 23 19 21 21 23 20 15 14 12 14 17 20 21 24 17 11 12 9 18 15 15 34 33 26 29 24 25 20 22 23 30 34 39 39 32 30 31
41 43 42 37 36 32 33 22 22 22 23 19 20 19 17 19 22 21 20 15 15 15 16 18 20 21 14 6 11 13 15 15 14 27 26 30 25 29 28 22 23 24 27 36 41 43 37 33 32
39 40 39 33 29 29 31 21 17 19 20 18 12 19 17 14 21 20 23 17 16 14 13 14 18 19 12 17 10 12 14 15 20 23 28 32 31 31 31 29 31 28 29 34 46 45 31 34 33
34 33 33 26 21 23 23 25 21 15 19 15 11 16 20 12 16 20 21 14 16 11 11 12 15 15 15 12 11 8 15 18 24 24 26 31 27 22 26 30 27 28 29 29 43 42 37 38 36
35 37 38 37 29 20 23 22 18 18 18 18 13 14 22 17 10 17 19 12 16 8 9 10 12 12 14 12 13 5 12 14 22 29 31 33 29 27 28 33 31 26 26 37 41 40 42 39 38
38 36 41 35 28 25 21 20 21 25 21 18 15 15 17 17 12 17 17 10 12 6 6 8 9 10 12 11 9 5 11 9 12 15 29 33 29 30 27 27 27 25 22 27 38 42 39 45 42
44 40 38 35 32 22 21 29 25 17 18 20 18 15 15 15 9 13 15 10 9 5 6 7 7 8 8 10 6 4 9 6 8 9 20 27 28 29 28 25 21 20 24 27 35 37 29 36 42
51 44 39 37 31 28 23 23 29 26 19 18 18 16 12 16 10 7 15 12 8 7 4 6 5 7 6 7 9 9 4 4 2 7 19 26 22 22 21 20 20 20 26 29 32 35 17 27 25
48 46 44 42 40 36 33 32 26 27 19 14 12 15 16 20 12 8 14 14 8 7 4 5 3 5 5 3 5 6 8 9 2 5 4 20 27 26 24 22 17 16 15 15 20 19 21 22 24
40 43 41 41 43 44 37 36 26 21 17 15 17 17 18 20 13 10 9 13 13 9 8 5 6 5 5 2 1 3 4 6 8 8 3 5 7 15 19 17 18 20 14 13 14 19 22 18 22
44 43 44 43 43 45 34 36 27 16 21 19 15 19 22 24 18 9 8 13 15 13 12 8 7 8 4 2 1 3 3 3 3 3 3 3 9 14 15 18 20 16 14 16 19 20 19 16 17
40 49 49 44 41 38 28 38 26 15 23 21 18 27 32 21 21 14 12 12 16 16 15 12 8 9 9 6 4 2 1 2 1 0 3 3 3 3 5 6 10 13 14 14 14 15 16 18 18
39 49 45 35 42 43 34 32 19 20 27 24 25 30 31 25 26 21 17 14 17 18 18 14 12 11 10 11 9 7 4 3 1 4 5 4 4 4 7 10 13 14 18 21 22 21 22 23 21
39 39 44 45 32 32 30 26 22 24 23 28 25 27 33 32 30 24 22 18 18 19 18 17 15 14 12 13 11 8 7 7 5 6 5 4 5 6 7 8 9 12 14 15 16 16 17 18 17
27 32 45 42 43 32 30 29 27 28 28 31 32 29 31 32 31 26 28 23 20 19 22 21 20 16 15 16 17 16 13 12 11 10 9 8 8 8 9 9 11 13 15 16 14 15 18 19 20
25 23 28 45 44 39 31 35 33 38 34 32 33 36 36 36 30 30 31 31 24 20 22 25 24 24 18 20 20 18 15 14 13 13 14 12 11 11 12 11 12 15 17 18 20 21 22 22 23
Wind_Direction
284 283 283 285 284 286 288 270 266 279 275 277 288 290 290 282 283 293 304 287 293 298 295 291 285 285 281 283 264 254 246 247 248 247 245 240 237 236 236 237 235 232 227 225 225 228 219 216 223
278 279 280 281 282 280 258 267 294 276 278 286 289 286 290 289 289 284 271 281 292 292 289 285 280 278 273 275 269 261 251 247 246 246 246 243 237 235 237 236 235 233 230 217 220 222 219 212 217
273 274 275 276 279 276 259 253 285 277 269 275 286 290 291 280 276 288 281 276 291 294 295 284 274 270 263 262 268 263 260 254 246 247 246 242 241 237 233 240 237 237 238 213 220 216 215 214 210
267 268 269 272 271 266 268 255 265 273 278 282 277 280 287 271 275 284 280 294 307 301 303 289 280 269 267 262 259 257 260 259 253 247 243 245 246 238 239 238 235 235 234 233 211 218 221 210 218
265 261 262 265 271 261 222 264 258 266 278 291 284 289 282 271 280 279 276 292 312 309 312 294 285 283 276 266 260 257 257 258 252 247 243 234 234 236 238 237 225 232 227 230 212 210 211 213 217
261 259 260 258 253 245 237 254 257 271 282 280 282 293 282 273 290 279 287 297 317 321 320 312 294 291 282 268 257 252 250 252 245 240 234 232 234 242 221 217 224 226 222 214 206 208 209 213 224
256 252 255 253 244 240 233 262 271 267 273 277 283 294 281 282 282 283 286 299 311 322 313 313 299 290 280 275 260 252 250 242 223 216 237 223 227 233 214 214 222 224 213 214 210 216 223 222 221
249 247 247 245 246 246 192 253 272 260 273 276 288 294 285 288 280 282 285 299 307 319 313 313 303 287 280 275 266 261 250 251 214 193 213 211 209 229 221 216 226 222 213 212 212 215 218 213 224
248 243 242 238 236 196 198 295 282 277 271 270 277 285 287 294 285 284 292 299 300 310 313 311 302 296 284 283 273 263 251 249 236 201 192 210 215 227 237 230 211 217 222 214 220 220 218 215 222
244 243 240 233 222 205 202 275 271 269 268 278 279 281 289 278 277 283 290 298 303 313 315 313 298 292 294 289 278 263 245 246 250 243 190 216 209 213 222 231 235 229 225 221 226 217 213 222 226
247 244 234 226 212 217 199 224 257 256 255 271 279 292 300 287 274 283 292 298 311 318 323 316 303 297 301 296 262 249 233 238 245 254 199 208 202 220 224 228 234 225 230 227 219 216 214 223 227
247 244 235 220 214 225 220 206 234 254 268 278 280 298 288 293 284 284 290 297 306 319 326 324 313 301 305 301 264 264 251 233 224 185 196 205 199 215 206 203 221 216 215 223 221 224 220 226 229
245 239 236 223 214 223 235 230 234 246 260 271 274 297 283 292 296 283 277 288 300 316 323 327 324 311 297 312 291 268 237 226 190 178 188 187 206 201 193 197 206 216 223 223 226 224 228 228 234
242 234 234 228 221 221 235 234 234 242 248 258 274 287 276 285 295 286 282 291 297 314 321 327 328 324 301 305 298 246 202 240 234 195 197 206 207 210 207 211 215 228 228 230 228 223 232 227 236
233 235 230 227 219 219 230 237 244 234 241 251 269 276 274 283 292 286 273 274 296 312 319 323 332 327 311 292 285 239 209 257 233 208 212 223 218 211 237 228 241 237 229 234 230 224 230 229 238
233 234 232 229 226 226 230 232 236 231 237 244 259 270 270 284 286 290 280 267 282 303 315 324 332 335 331 307 301 261 242 245 222 211 233 219 217 225 225 243 238 238 233 236 230 227 225 225 236
229 243 238 230 227 236 243 238 222 230 239 239 256 269 273 278 285 293 278 280 286 294 309 325 330 337 305 319 306 243 238 230 231 224 227 230 240 238 238 232 233 240 238 236 237 227 224 230 238
220 236 237 224 233 235 235 241 228 224 237 244 245 269 277 276 285 298 288 286 282 293 311 327 328 335 323 328 304 240 226 249 248 250 240 232 236 236 230 231 238 242 246 235 231 228 229 232 239
215 230 218 216 203 204 220 247 234 236 238 235 233 239 274 283 290 297 290 285 278 289 312 324 326 327 325 336 337 280 293 261 260 254 235 228 230 240 243 236 239 248 243 230 230 240 236 238 238
208 224 223 217 204 219 220 225 241 235 229 239 245 249 255 276 296 296 285 279 280 295 314 322 328 326 329 343 312 284 325 297 290 239 219 217 221 235 231 233 241 249 250 247 244 247 255 252 243
208 215 216 212 218 197 205 213 226 232 249 251 241 250 260 266 281 288 284 273 278 289 314 320 332 324 340 346 6 252 316 340 304 222 214 219 220 228 235 239 236 247 247 252 255 247 255 258 247
211 213 216 217 219 206 205 214 220 231 218 235 247 251 258 270 273 292 288 278 262 269 285 299 321 318 344 358 27 44 345 212 239 191 222 223 222 228 222 220 221 240 248 239 239 241 243 244 241
216 211 217 213 218 224 218 231 215 215 206 199 232 251 241 257 268 281 280 278 257 255 244 264 282 314 329 7 10 32 38 80 116 210 211 216 225 225 232 199 202 211 206 211 217 205 214 229 247
220 219 217 221 221 226 217 232 215 223 212 198 233 248 254 260 242 258 271 267 261 246 240 232 265 274 296 324 54 37 44 43 40 60 115 193 189 197 198 215 215 212 205 208 214 211 218 227 247
227 220 216 219 224 227 218 229 238 216 215 203 219 236 251 263 268 240 257 263 260 248 245 231 240 252 230 278 29 80 46 38 59 27 20 58 211 210 214 212 224 224 228 227 225 226 222 227 231
225 222 218 220 226 234 226 238 235 221 210 203 211 227 240 255 269 258 251 250 251 252 247 245 230 233 231 214 207 187 110 80 41 234 184 224 229 172 160 213 222 216 216 223 224 222 225 227 227
217 222 209 217 228 232 228 238 232 212 205 206 212 230 245 253 261 265 253 249 258 253 248 251 240 228 230 229 216 222 230 233 250 252 237 228 207 216 227 233 234 232 227 225 220 216 214 223 231
227 217 208 214 203 223 222 222 209 226 213 217 219 228 238 246 252 262 260 257 254 257 251 243 245 242 230 245 250 254 258 254 260 267 244 241 240 234 239 244 247 248 247 248 244 240 240 246 251
217 209 212 218 216 205 202 205 203 199 215 226 229 231 228 233 244 252 257 248 236 239 244 247 239 238 247 243 260 275 273 258 260 258 257 258 260 265 266 267 267 263 260 258 256 257 253 258 259
216 215 219 214 218 214 201 200 200 194 214 215 221 214 221 233 249 258 270 274 257 238 238 244 246 242 241 250 255 267 282 264 260 260 253 253 257 258 260 263 271 271 267 263 264 265 266 266 265
Height
5819 5819 5818 5818 5821 5820 5819 5817 5812 5809 5809 5810 5812 5813 5811 5808 5807 5812 5808 5805 5805 5803 5801 5800 5798 5799 5799 5799 5797 5798 5799 5800 5803 5805 5807 5810 5813 5817 5819 5822 5825 5828 5831 5833 5836 5838 5840 5841 5842
5813 5813 5813 5813 5816 5816 5814 5812 5806 5806 5806 5805 5808 5807 5806 5802 5803 5806 5805 5800 5799 5801 5797 5796 5795 5793 5794 5793 5793 5793 5794 5795 5797 5797 5800 5802 5806 5809 5812 5816 5820 5823 5826 5828 5832 5835 5836 5838 5840
5806 5807 5808 5808 5810 5812 5810 5806 5804 5801 5800 5802 5803 5803 5800 5802 5801 5799 5799 5800 5796 5795 5794 5791 5789 5789 5788 5788 5788 5789 5789 5790 5791 5790 5793 5795 5800 5804 5808 5811 5816 5819 5822 5823 5827 5831 5833 5834 5837
5798 5799 5802 5803 5805 5808 5806 5803 5799 5796 5795 5797 5800 5801 5795 5799 5798 5796 5794 5794 5791 5788 5790 5786 5782 5782 5782 5783 5783 5783 5783 5783 5785 5785 5787 5789 5793 5798 5803 5807 5811 5815 5819 5820 5823 5826 5830 5832 5834
5792 5791 5793 5795 5800 5800 5801 5802 5797 5794 5793 5789 5792 5796 5790 5795 5794 5792 5790 5789 5787 5781 5782 5779 5777 5776 5775 5776 5776 5777 5779 5778 5778 5778 5779 5783 5788 5790 5797 5801 5806 5811 5814 5817 5819 5823 5826 5828 5830
5783 5785 5787 5789 5793 5793 5792 5792 5792 5791 5791 5791 5787 5790 5785 5790 5791 5787 5785 5782 5780 5777 5775 5773 5770 5770 5768 5769 5770 5769 5771 5769 5769 5770 5773 5778 5782 5786 5791 5796 5800 5804 5807 5811 5814 5818 5820 5821 5827
5775 5775 5780 5782 5785 5785 5786 5787 5788 5787 5785 5783 5784 5783 5779 5785 5784 5784 5781 5777 5774 5772 5769 5768 5766 5764 5763 5762 5762 5762 5766 5765 5765 5768 5767 5774 5778 5782 5786 5790 5795 5798 5801 5805 5808 5813 5816 5820 5822
5766 5766 5770 5774 5780 5783 5782 5781 5781 5781 5780 5778 5779 5779 5775 5776 5779 5777 5777 5773 5769 5768 5764 5762 5761 5758 5756 5757 5757 5757 5759 5759 5766 5762 5766 5767 5767 5779 5780 5785 5789 5794 5797 5801 5804 5809 5813 5815 5820
5757 5755 5761 5769 5773 5775 5772 5776 5776 5776 5775 5774 5775 5774 5773 5772 5771 5771 5771 5768 5765 5763 5759 5757 5755 5753 5752 5750 5750 5750 5752 5754 5758 5763 5760 5764 5768 5776 5778 5782 5784 5792 5796 5798 5803 5807 5810 5813 5817
5744 5747 5757 5764 5765 5765 5765 5771 5771 5768 5768 5769 5768 5768 5771 5770 5765 5766 5766 5763 5759 5758 5754 5752 5751 5749 5746 5745 5741 5743 5745 5748 5747 5754 5758 5762 5765 5771 5775 5779 5782 5788 5792 5797 5801 5804 5806 5811 5814
5739 5741 5751 5755 5757 5753 5757 5761 5763 5762 5765 5764 5763 5763 5762 5763 5762 5761 5760 5759 5755 5753 5750 5748 5747 5744 5742 5738 5736 5739 5742 5744 5745 5747 5753 5759 5761 5767 5774 5778 5780 5784 5789 5794 5797 5800 5803 5807 5811
5728 5737 5742 5748 5748 5749 5751 5755 5756 5758 5760 5759 5759 5761 5758 5758 5757 5757 5755 5755 5751 5750 5747 5744 5743 5739 5738 5734 5733 5735 5738 5739 5740 5746 5750 5755 5760 5766 5769 5772 5776 5780 5786 5791 5794 5798 5800 5804 5807
5722 5730 5733 5739 5740 5742 5745 5749 5751 5754 5756 5754 5755 5758 5753 5752 5752 5753 5753 5750 5748 5746 5743 5740 5738 5736 5734 5731 5729 5732 5734 5737 5737 5738 5745 5754 5759 5763 5767 5770 5774 5780 5783 5789 5791 5794 5797 5801 5801
5717 5719 5725 5730 5734 5736 5739 5743 5745 5751 5751 5751 5750 5754 5751 5750 5748 5748 5748 5745 5744 5742 5740 5737 5732 5730 5729 5727 5727 5729 5731 5734 5738 5743 5747 5752 5755 5760 5764 5768 5773 5776 5779 5783 5785 5790 5792 5797 5797
5709 5711 5715 5721 5727 5729 5733 5735 5741 5745 5744 5745 5744 5749 5749 5747 5744 5745 5746 5743 5740 5739 5736 5733 5729 5725 5724 5725 5725 5729 5731 5734 5737 5741 5745 5749 5753 5755 5760 5764 5769 5771 5774 5777 5780 5785 5789 5793 5794
5701 5705 5710 5721 5723 5727 5727 5732 5738 5738 5737 5740 5740 5743 5745 5743 5741 5739 5740 5741 5738 5736 5734 5731 5726 5722 5719 5723 5722 5724 5729 5732 5736 5739 5742 5745 5748 5751 5755 5758 5764 5765 5768 5772 5775 5780 5784 5787 5790
5696 5702 5708 5716 5719 5724 5723 5729 5731 5731 5731 5734 5736 5737 5740 5742 5738 5736 5735 5736 5735 5733 5732 5730 5726 5722 5718 5715 5715 5718 5723 5727 5729 5735 5738 5741 5744 5747 5750 5755 5759 5762 5763 5766 5769 5775 5779 5782 5785
5690 5698 5705 5710 5718 5717 5718 5722 5723 5726 5726 5729 5731 5733 5733 5737 5736 5733 5731 5732 5731 5731 5729 5727 5725 5721 5718 5714 5715 5717 5720 5721 5722 5725 5729 5734 5737 5742 5747 5752 5755 5757 5757 5760 5764 5771 5774 5777 5780
5683 5690 5694 5700 5705 5704 5708 5715 5718 5720 5722 5724 5727 5731 5728 5731 5734 5730 5729 5729 5727 5728 5726 5725 5723 5720 5717 5713 5710 5711 5714 5717 5718 5717 5720 5726 5734 5738 5742 5745 5750 5751 5750 5756 5760 5765 5769 5771 5774
5675 5683 5690 5697 5702 5698 5704 5707 5712 5714 5717 5718 5721 5725 5726 5726 5729 5727 5726 5725 5724 5724 5724 5723 5722 5719 5717 5714 5710 5708 5706 5707 5707 5711 5717 5722 5728 5733 5737 5740 5742 5744 5747 5751 5754 5760 5763 5765 5768
5668 5675 5685 5692 5694 5692 5695 5697 5704 5710 5713 5715 5715 5719 5720 5721 5725 5724 5723 5722 5722 5721 5722 5721 5720 5719 5718 5715 5711 5710 5709 5705 5707 5707 5713 5719 5724 5728 5731 5735 5736 5739 5743 5746 5747 5752 5755 5758 5762
5660 5671 5680 5685 5685 5687 5690 5693 5697 5702 5706 5709 5712 5713 5716 5715 5721 5722 5719 5719 5720 5719 5719 5720 5718 5717 5717 5715 5712 5711 5710 5710 5712 5710 5710 5714 5718 5722 5725 5728 5734 5735 5735 5739 5742 5744 5746 5754 5757
5655 5662 5667 5673 5677 5680 5685 5688 5694 5695 5698 5703 5708 5710 5712 5711 5716 5719 5717 5715 5718 5717 5717 5717 5717 5716 5715 5715 5714 5713 5712 5710 5709 5709 5710 5711 5715 5718 5722 5725 5729 5731 5733 5734 5736 5738 5744 5748 5751
5651 5655 5663 5669 5670 5668 5682 5684 5690 5692 5697 5698 5702 5705 5707 5706 5712 5715 5715 5712 5713 5715 5714 5715 5715 5714 5714 5714 5713 5712 5712 5711 5710 5709 5710 5711 5713 5715 5719 5722 5725 5728 5729 5730 5732 5735 5739 5742 5744
5646 5653 5658 5661 5660 5662 5676 5679 5686 5693 5693 5694 5697 5699 5701 5702 5705 5710 5712 5711 5709 5711 5711 5712 5712 5712 5711 5711 5711 5710 5710 5709 5710 5710 5711 5712 5713 5714 5717 5719 5721 5723 5725 5727 5730 5731 5734 5735 5738
5638 5645 5651 5652 5657 5663 5675 5668 5681 5690 5690 5690 5692 5695 5695 5699 5700 5704 5707 5708 5706 5707 5708 5708 5709 5710 5710 5709 5710 5709 5709 5709 5710 5711 5712 5714 5715 5715 5715 5717 5718 5720 5723 5725 5726 5727 5728 5731 5732
5631 5636 5647 5646 5649 5657 5667 5668 5679 5682 5682 5685 5689 5689 5691 5695 5695 5698 5702 5703 5703 5704 5704 5705 5706 5707 5707 5708 5708 5709 5708 5708 5708 5710 5711 5712 5713 5714 5715 5716 5718 5719 5720 5721 5721 5720 5722 5725 5726
5626 5634 5636 5638 5645 5649 5659 5666 5673 5674 5678 5681 5684 5684 5685 5687 5689 5692 5693 5697 5699 5700 5700 5701 5702 5702 5703 5705 5705 5706 5707 5707 5706 5707 5708 5709 5709 5710 5712 5714 5715 5717 5718 5718 5718 5718 5719 5720 5721
5621 5623 5629 5636 5641 5645 5652 5659 5665 5669 5670 5673 5675 5680 5682 5682 5683 5686 5684 5689 5692 5693 5694 5695 5696 5697 5698 5700 5701 5703 5703 5704 5704 5704 5704 5705 5706 5707 5709 5710 5711 5712 5712 5712 5713 5714 5714 5714 5714
5611 5616 5622 5628 5635 5641 5647 5654 5657 5659 5664 5665 5666 5667 5669 5672 5675 5677 5678 5681 5687 5689 5689 5689 5690 5693 5694 5693 5695 5697 5700 5700 5699 5699 5700 5701 5702 5703 5705 5706 5707 5707 5708 5709 5710 5710 5709 5709 5709